Simultaneous Nadir Overpasses (SNOs) Predictions

Prediction of SNOs between METOP-C and LANDSAT-8 Satellite Orbit:

Table of predicted SNOs for the next 14.0 days since TLE Epoch: 5/16/2020
Index Date (METOP-C) Time (METOP-C) Lat,Lon (METOP-C) SZA (METOP-C ) Date (LANDSAT-8) Time (LANDSAT-8) Lat,Lon (LANDSAT-8) SZA (LANDSAT-8 ) Distance(km) Time Diff (sec)
1 05/18/2020 11:25:25 81.10, 48.01 63.58 05/18/2020 11:25:44 81.10, 47.95 63.58 1.07 19
2 05/18/2020 12:16:04 -81.13,-143.82 116.32 05/18/2020 12:15:10 -81.13,-144.01 116.37 3.30 54
3 05/21/2020 06:59:47 81.11, 114.69 63.03 05/21/2020 07:00:02 81.11, 114.54 63.02 2.63 15
4 05/21/2020 07:50:28 -81.12, -77.83 116.96 05/21/2020 07:49:29 -81.12, -77.76 116.98 1.12 59
5 05/24/2020 02:34:11 81.09,-179.39 62.43 05/24/2020 02:34:22 81.10,-179.27 62.45 2.17 11
6 05/24/2020 03:24:50 -81.13, -11.10 117.46 05/24/2020 03:23:48 -81.13, -11.19 117.49 1.45 62
7 05/26/2020 22:08:32 81.10,-112.74 61.96 05/26/2020 22:08:41 81.11,-112.74 61.97 0.24 9
8 05/26/2020 22:59:13 -81.11, 54.86 118.01 05/26/2020 22:58:08 -81.11, 55.00 118.03 2.31 65
9 05/29/2020 17:42:54 81.11, -46.08 61.55 05/29/2020 17:43:02 81.11, -46.24 61.53 2.74 8




NCC Satellite Simultaneous Nadir Overpasses (SNOs) Prediction Service
